Jordan, MT

7:59 PM MDT on August 23, 2017 (GMT -0600)
Jordan

Weather History for KJDN - March, 2013

Change the Weather History Date:

Saturday, March 23, 2013

  Actual Average Record
Temperature  
Mean Temperature 20 °F 36 °F  
Max Temperature 25 °F 49 °F 79 °F (1993)
Min Temperature 15 °F 24 °F -9 °F (1952)
Degree Days  
Heating Degree Days 45 29  
Month to date heating degree days 823 767  
Since 1 July heating degree days 6281 6885  
Cooling Degree Days 0 0  
Month to date cooling degree days 0 0  
Year to date cooling degree days 0 0  
Moisture  
Dew Point 12 °F    
Average Humidity 73    
Maximum Humidity 88    
Minimum Humidity 57    
Precipitation  
Precipitation 0.00 in 0.02 in 0.65 in (1937)
Month to date precipitation 0.74 0.38  
Year to date precipitation 1.14 0.86  
Snow  
Snow 0.00 in - - ()
Month to date snowfall 0.0  
Since 1 July snowfall 0.0  
Snow Depth 0.00 in    
Sea Level Pressure  
Sea Level Pressure 30.35 in    
Wind  
Wind Speed 15 mph (NW)    
Max Wind Speed 23 mph    
Max Gust Speed 28 mph    
T = Trace of Precipitation, MM = Missing Value Source: NWS Daily Summary

Daily Weather History Graph

Daily Weather History Graph

Search for Another Location

Airport or City:

Trip Planner

Search our weather history database for the weather conditions in past years. The results will help you decide how hot, cold, wet, or windy it might be!

Date:

Astronomy

Mar. 23, 2013 Rise Set
Actual Time 7:03 AM MDT 7:25 PM MDT
Civil Twilight 6:33 AM MDT 7:55 PM MDT
Nautical Twilight 5:57 AM MDT 8:32 PM MDT
Astronomical Twilight 5:19 AM MDT 9:09 PM MDT
Moon 3:42 PM MDT (3/23) 4:55 AM MDT (3/23)
Length of Visible Light 13h 22m
Length of Day
12h 21m
Waxing Gibbous, 85% of the Moon is Illuminated
Mar 23
Waxing Gibbous
Mar 27
Full
Apr 2
Last Quarter
Apr 10
New
Apr 18
First Quarter

Hourly Weather History & Observations

Time (MDT) Temp. Windchill Dew Point Humidity Pressure Visibility Wind Dir Wind Speed Gust Speed Precip Events Conditions
12:48 AM 21.0 °F 8.6 °F 12.9 °F 71% 30.26 in - NNW 12.7 mph - N/A   Unknown
1:48 AM 19.9 °F 6.7 °F 12.9 °F 74% 30.27 in - NW 13.8 mph - N/A   Unknown
2:48 AM 19.9 °F 6.7 °F 12.9 °F 74% 30.27 in - NNW 13.8 mph - N/A   Unknown
3:48 AM 19.0 °F 4.5 °F 12.0 °F 74% 30.27 in - NNW 16.1 mph - N/A   Unknown
4:48 AM 19.0 °F 4.0 °F 12.0 °F 74% 30.28 in - NW 17.3 mph - N/A   Unknown
5:48 AM 18.0 °F 3.1 °F 12.0 °F 78% 30.30 in - NW 16.1 mph 23.0 mph N/A   Unknown
6:48 AM 17.1 °F 1.5 °F 10.9 °F 77% 30.33 in - NW 17.3 mph 23.0 mph N/A   Unknown
7:48 AM 15.1 °F -2.0 °F 8.1 °F 74% 30.36 in - NW 19.6 mph - N/A   Unknown
8:48 AM 16.0 °F -0.9 °F 8.1 °F 71% 30.37 in - NW 19.6 mph - N/A   Unknown
9:48 AM 18.0 °F 2.2 °F 9.0 °F 68% 30.36 in - WNW 18.4 mph - N/A   Unknown
10:48 AM 19.9 °F 4.8 °F 10.0 °F 65% 30.37 in - NW 18.4 mph 25.3 mph N/A   Unknown
11:48 AM 19.9 °F 4.8 °F 9.0 °F 62% 30.37 in - NW 18.4 mph - N/A   Unknown
12:48 PM 21.0 °F 6.6 °F 9.0 °F 60% 30.37 in - NW 17.3 mph - N/A   Unknown
1:48 PM 21.9 °F 7.8 °F 9.0 °F 58% 30.36 in - NW 17.3 mph - N/A   Unknown
2:48 PM 21.9 °F 8.2 °F 14.0 °F 72% 30.35 in - NNW 16.1 mph 23.0 mph N/A   Unknown
3:48 PM 23.0 °F 8.0 °F 12.0 °F 63% 30.35 in - NW 20.7 mph - N/A   Unknown
4:48 PM 24.1 °F 9.8 °F 12.0 °F 60% 30.35 in - NW 19.6 mph - N/A   Unknown
5:48 PM 23.0 °F 10.6 °F 15.1 °F 72% 30.35 in - North 13.8 mph - N/A   Unknown
6:48 PM 21.0 °F 8.1 °F 15.1 °F 78% 30.37 in - NNW 13.8 mph - N/A   Unknown
7:48 PM 19.9 °F 9.3 °F 16.0 °F 85% 30.38 in - North 9.2 mph - N/A   Unknown
8:48 PM 19.0 °F 8.2 °F 14.0 °F 81% 30.40 in - North 9.2 mph - N/A   Unknown
9:48 PM 17.1 °F 8.7 °F 14.0 °F 88% 30.41 in - North 5.8 mph - N/A   Unknown
10:48 PM 17.1 °F 8.7 °F 12.9 °F 84% 30.41 in - North 5.8 mph - N/A   Unknown
11:48 PM 16.0 °F 5.3 °F 12.0 °F 84% 30.41 in - NNW 8.1 mph - N/A   Unknown